Regional Weather Roundup
Issued by NWS

Home | Current Version | Previous Version | Graphics & Text | Print | Product List | Glossary On
Versions: 1 2 3 4 5 6 7 8 9 10 11 12 13 14 15 16 17 18 19 20 21 22 23 24 25 26 27 28 29 30 31 32 33 34 35 36 37 38 39 40 41 42 43 44 45 46 47 48 49 50
000
ASUS43 KIND 231559
RWRIN

WEATHER ROUNDUP FOR INDIANA
NATIONAL WEATHER SERVICE INDIANAPOLIS IN
1200 PM EDT WED JUL 23 2014

NOTE: "FAIR" INDICATES FEW OR NO CLOUDS BELOW 12,000 FEET WITH NO
SIGNIFICANT WEATHER AND/OR OBSTRUCTIONS TO VISIBILITY.

* - STATION DOES NOT REPORT WEATHER SUCH AS PRECIPITATION OR FOG.

+ - STATION NOT QUALITY CONTROLLED BY THE NATIONAL WEATHER SERVICE.
    USE DATA WITH CAUTION...ESPECIALLY DEWPOINT AND RELATIVE
    HUMIDITY OBSERVATIONS.

INZ001>003-010>013-019-020-231700-
NORTHWEST INDIANA

CITY           SKY/WX    TMP DP  RH WIND       PRES   REMARKS
GARY /AIRPORT/ MOSUNNY   68  59  73 N16G32    30.15R
KNOX *+        PTSUNNY   70  60  70 N14       30.10R
MONTICELLO +   CLOUDY    71  63  76 N8        30.08R
VALPARAISO     CLOUDY    68  60  75 N9G20     30.12R

$$

LMZ046-743>745-231700-
SOUTHERN LAKE MICHIGAN

STATION/POSITION TIME  TEMP WIND        PRES
                       AIR  DIR/SP/G
                 (UTC) (F)  (DEG/KT/KT) (MB)
MICHIGAN CITY    1500   65  360/ 23/ 26   N/A

$$

INZ004-005-014>016-021>024-231700-
NORTH CENTRAL INDIANA

CITY           SKY/WX    TMP DP  RH WIND       PRES   REMARKS
GOSHEN         CLOUDY    68  61  78 NW9       30.09R
LOGANSPORT +   CLOUDY    68  63  83 N9        30.09R
SOUTH BEND     CLOUDY    67  57  70 N13       30.12R
WARSAW +       CLOUDY    64  63  94 N10       30.09R

$$

INZ006>009-017-018-025>027-231700-
NORTHEAST INDIANA

CITY           SKY/WX    TMP DP  RH WIND       PRES   REMARKS
ANGOLA *+      CLOUDY    68  59  73 N12       30.07R
AUBURN +       CLOUDY    68  63  83 N7        30.08R
FORT WAYNE     CLOUDY    72  67  84 NW3       30.06R

$$

INZ028-029-035-036-043>045-051>053-231700-
WEST CENTRAL INDIANA

CITY           SKY/WX    TMP DP  RH WIND       PRES   REMARKS
GREENCASTLE +  CLOUDY    72  70  94 SE6       30.06R FOG
LAFAYETTE      CLOUDY    71  63  75 N12       30.08R
TERRE HAUTE    CLOUDY    76  70  82 N5        30.05R

$$

INZ030>032-037>040-046>048-054>057-064-065-231700-
CENTRAL INDIANA

CITY           SKY/WX    TMP DP  RH WIND       PRES   REMARKS
ANDERSON       CLOUDY    72  68  88 CALM      30.07F
COLUMBUS       MOSUNNY   70  70 100 SE12      30.04F
INDIANAPOLIS   CLOUDY    69  67  93 S6        30.04F
-EAGLE CREEK   CLOUDY    70  67  90 SE5       30.05S
KOKOMO *+      CLOUDY    72  70  94 CALM      30.07S
MT COMFORT *+  CLOUDY    70 N/A N/A NW3       30.05F
SHELBYVILLE    CLOUDY    71  66  84 S7        30.05F

$$

INZ033-034-041-042-049-050-058-059-231700-
EAST CENTRAL INDIANA

CITY           SKY/WX    TMP DP  RH WIND       PRES   REMARKS
MUNCIE         CLOUDY    72  68  87 NW3       30.06F

$$

INZ060-061-067>069-081>083-085>088-231700-
SOUTHWEST INDIANA

CITY           SKY/WX    TMP DP  RH WIND       PRES   REMARKS
EVANSVILLE     CLOUDY    72  67  84 S3        30.05S
HUNTINGBURG *+ CLOUDY    73  70  88 N21G28    30.05S

$$

INZ062-063-066-070>080-084-089>092-231700-
SOUTH CENTRAL AND SOUTHEAST INDIANA

CITY           SKY/WX    TMP DP  RH WIND       PRES   REMARKS
BLOOMINGTON    CLOUDY    73  69  87 S6        30.09R

$$



USA.gov is the U.S. government's official web portal to all federal, state and local government web resources and services.